MOLNIYA 3-10 (11057 NORAD) Tracking and Keplerian Element Data

This shows tracking and keplerian element data for the satellite.

Feedback or suggestion? Click here.




ElementValue
Catalog11057
NameMOLNIYA 3-10
Epoch Orbit42317
Epoch Day34.79805107
Epoch Year2025
RAAN56.0659
Inclination63.4756
Eccentricity0.5621374
Argument of Perigee314.8507
Mean Anonmoly11.3018
Mean Motion4.0991268
Decay Rate-1.95E-06
L11 11057U 78095A 25034.79805107 -.00000195 00000+0 -40580-2 0 9999
L22 11057 63.4756 56.0659 5621374 314.8507 11.3018 4.09912680423174



Live tracking and technical data element details for MOLNIYA 3-10 (NORAD 11057). MOLNIYA 3-10 can be tracked NOW for your location showing map with azimuth and elevation plus other details from your city location.







IsCatalogInMostPopularTable: catalog: 11057, numindb: 308
Update: records affected: 1



GetName: 11057 MOLNIYA 3-10

Hit Count: updated at: Thu, 22 May 2025 04:17:51 GMT